When you browse on this site, cookies collect data to enhance your experience and personalize the content and advertising you see.
Visit our Privacy Policy to learn more. By continuing to use the site, you agree to this use of cookies and data.
  • en France
  • Liste des pays
  • À 7 jours
  • Température de l'eau
  • Carte météo
  • Widgets météo
  • user-avatar
    Se connecter

    Météo par heure à Safaga

    Ce jour, 4 Juin, Jeudi

    Heure Température Précipitation Vent Pression Humidité
    00:00 +26°C° 0 mm 2 m/s 703 mmHg 31%
    01:00 +26°C° 0 mm 2 m/s 702 mmHg 31%
    02:00 +26°C° 0 mm 2 m/s 702 mmHg 31%
    03:00 +26°C° 0 mm 2 m/s 702 mmHg 31%
    04:00 +25°C° 0 mm 2 m/s 702 mmHg 31%
    05:00 +25°C° 0 mm 3 m/s 702 mmHg 31%
    06:00 +28°C° 0 mm 3 m/s 703 mmHg 27%
    07:00 +30°C° 0 mm 3 m/s 703 mmHg 22%
    08:00 +34°C° 0 mm 3 m/s 704 mmHg 17%
    09:00 +35°C° 0 mm 3 m/s 704 mmHg 16%
    10:00 +37°C° 0 mm 3 m/s 704 mmHg 15%
    11:00 +38°C° 0 mm 3 m/s 705 mmHg 14%
    12:00 +40°C° 0 mm 4 m/s 704 mmHg 14%
    13:00 +40°C° 0 mm 4 m/s 704 mmHg 14%
    14:00 +41°C° 0 mm 5 m/s 703 mmHg 13%
    15:00 +40°C° 0 mm 5 m/s 703 mmHg 14%
    16:00 +39°C° 0 mm 5 m/s 703 mmHg 14%
    17:00 +37°C° 0 mm 5 m/s 702 mmHg 15%
    18:00 +35°C° 0 mm 4 m/s 702 mmHg 17%
    19:00 +33°C° 0 mm 3 m/s 702 mmHg 18%
    20:00 +30°C° 0 mm 2 m/s 702 mmHg 20%
    21:00 +30°C° 0 mm 2 m/s 702 mmHg 21%
    22:00 +29°C° 0 mm 2 m/s 702 mmHg 21%
    23:00 +29°C° 0 mm 2 m/s 702 mmHg 22%

    Demain, 5 Juin, Vendredi

    Heure Température Précipitation Vent Pression Humidité
    00:00 +29°C° 0 mm 2 m/s 702 mmHg 23%
    01:00 +28°C° 0 mm 2 m/s 701 mmHg 24%
    02:00 +28°C° 0 mm 2 m/s 701 mmHg 25%
    03:00 +27°C° 0 mm 2 m/s 701 mmHg 26%
    04:00 +27°C° 0 mm 2 m/s 701 mmHg 28%
    05:00 +26°C° 0 mm 2 m/s 702 mmHg 29%
    06:00 +29°C° 0 mm 3 m/s 702 mmHg 26%
    07:00 +31°C° 0 mm 3 m/s 703 mmHg 23%
    08:00 +34°C° 0 mm 3 m/s 704 mmHg 20%
    09:00 +36°C° 0 mm 3 m/s 704 mmHg 18%
    10:00 +37°C° 0 mm 3 m/s 704 mmHg 17%
    11:00 +39°C° 0 mm 2 m/s 704 mmHg 15%
    12:00 +40°C° 0 mm 3 m/s 704 mmHg 14%
    13:00 +42°C° 0 mm 4 m/s 703 mmHg 13%
    14:00 +42°C° 0 mm 5 m/s 703 mmHg 12%
    15:00 +42°C° 0 mm 5 m/s 702 mmHg 11%
    16:00 +42°C° 0 mm 4 m/s 702 mmHg 11%
    17:00 +41°C° 0 mm 4 m/s 702 mmHg 11%
    18:00 +38°C° 0 mm 4 m/s 702 mmHg 14%
    19:00 +35°C° 0 mm 4 m/s 702 mmHg 17%
    20:00 +33°C° 0 mm 4 m/s 702 mmHg 20%
    21:00 +30°C° 0 mm 3 m/s 702 mmHg 23%
    22:00 +29°C° 0 mm 2 m/s 702 mmHg 26%
    23:00 +28°C° 0 mm 1 m/s 702 mmHg 29%

    Après-demain, 6 Juin, Samedi

    Heure Température Précipitation Vent Pression Humidité
    00:00 +27°C° 0 mm 1 m/s 702 mmHg 30%
    01:00 +27°C° 0 mm 1 m/s 701 mmHg 31%
    02:00 +26°C° 0 mm 1 m/s 701 mmHg 33%
    03:00 +25°C° 0 mm 1 m/s 701 mmHg 34%
    04:00 +25°C° 0 mm 1 m/s 701 mmHg 35%
    05:00 +24°C° 0 mm 1 m/s 701 mmHg 37%
    06:00 +27°C° 0 mm 1 m/s 702 mmHg 31%
    07:00 +30°C° 0 mm 1 m/s 703 mmHg 26%
    08:00 +33°C° 0 mm 1 m/s 704 mmHg 20%
    09:00 +36°C° 0 mm 2 m/s 704 mmHg 17%
    10:00 +38°C° 0 mm 3 m/s 704 mmHg 13%
    11:00 +41°C° 0 mm 4 m/s 704 mmHg 10%
    12:00 +41°C° 0 mm 5 m/s 704 mmHg 9%
    13:00 +42°C° 0 mm 5 m/s 703 mmHg 9%
    14:00 +42°C° 0 mm 6 m/s 703 mmHg 8%
    15:00 +41°C° 0 mm 5 m/s 702 mmHg 9%
    16:00 +41°C° 0 mm 4 m/s 702 mmHg 10%
    17:00 +39°C° 0 mm 3 m/s 702 mmHg 10%
    18:00 +36°C° 0 mm 3 m/s 702 mmHg 15%
    19:00 +32°C° 0 mm 2 m/s 701 mmHg 20%
    20:00 +29°C° 0 mm 1 m/s 701 mmHg 25%
    21:00 +28°C° 0 mm 1 m/s 701 mmHg 26%
    22:00 +27°C° 0 mm 1 m/s 701 mmHg 27%
    23:00 +27°C° 0 mm 1 m/s 701 mmHg 28%

    7 Juin, Dimanche

    Heure Température Précipitation Vent Pression Humidité
    00:00 +26°C° 0 mm 1 m/s 701 mmHg 29%
    01:00 +26°C° 0 mm 1 m/s 700 mmHg 30%
    02:00 +26°C° 0 mm 1 m/s 700 mmHg 32%
    03:00 +25°C° 0 mm 1 m/s 700 mmHg 33%
    04:00 +25°C° 0 mm 1 m/s 700 mmHg 34%
    05:00 +24°C° 0 mm 1 m/s 700 mmHg 34%
    06:00 +27°C° 0 mm 1 m/s 701 mmHg 29%
    07:00 +31°C° 0 mm 1 m/s 702 mmHg 23%
    08:00 +34°C° 0 mm 1 m/s 703 mmHg 17%
    09:00 +37°C° 0 mm 2 m/s 703 mmHg 15%
    10:00 +38°C° 0 mm 2 m/s 703 mmHg 12%
    11:00 +40°C° 0 mm 3 m/s 703 mmHg 9%
    12:00 +42°C° 0 mm 3 m/s 703 mmHg 8%
    13:00 +42°C° 0 mm 4 m/s 702 mmHg 8%
    14:00 +43°C° 0 mm 4 m/s 702 mmHg 7%
    15:00 +42°C° 0 mm 4 m/s 702 mmHg 8%
    16:00 +42°C° 0 mm 3 m/s 701 mmHg 8%
    17:00 +40°C° 0 mm 3 m/s 701 mmHg 9%
    18:00 +37°C° 0 mm 3 m/s 701 mmHg 12%
    19:00 +34°C° 0 mm 3 m/s 700 mmHg 16%
    20:00 +31°C° 0 mm 3 m/s 700 mmHg 20%
    21:00 +30°C° 0 mm 3 m/s 700 mmHg 20%
    22:00 +29°C° 0 mm 2 m/s 700 mmHg 20%
    23:00 +29°C° 0 mm 2 m/s 700 mmHg 21%

    8 Juin, Lundi

    Heure Température Précipitation Vent Pression Humidité
    00:00 +28°C° 0 mm 2 m/s 700 mmHg 21%
    01:00 +27°C° 0 mm 1 m/s 700 mmHg 21%
    02:00 +27°C° 0 mm 1 m/s 700 mmHg 22%
    03:00 +26°C° 0 mm 1 m/s 700 mmHg 20%
    04:00 +26°C° 0 mm 1 m/s 700 mmHg 19%
    05:00 +26°C° 0 mm 1 m/s 700 mmHg 17%
    06:00 +29°C° 0 mm 1 m/s 701 mmHg 14%
    07:00 +32°C° 0 mm 1 m/s 701 mmHg 11%
    08:00 +36°C° 0 mm 1 m/s 702 mmHg 8%
    09:00 +38°C° 0 mm 2 m/s 702 mmHg 8%
    10:00 +40°C° 0 mm 3 m/s 702 mmHg 7%
    11:00 +42°C° 0 mm 3 m/s 702 mmHg 7%
    12:00 +42°C° 0 mm 4 m/s 702 mmHg 7%
    13:00 +43°C° 0 mm 5 m/s 702 mmHg 6%
    14:00 +44°C° 0 mm 6 m/s 701 mmHg 6%
    15:00 +43°C° 0 mm 5 m/s 701 mmHg 7%
    16:00 +42°C° 0 mm 5 m/s 701 mmHg 7%
    17:00 +41°C° 0 mm 4 m/s 700 mmHg 8%
    18:00 +37°C° 0 mm 4 m/s 700 mmHg 10%
    19:00 +34°C° 0 mm 3 m/s 700 mmHg 13%
    20:00 +30°C° 0 mm 2 m/s 700 mmHg 15%
    21:00 +30°C° 0 mm 2 m/s 700 mmHg 15%
    22:00 +29°C° 0 mm 1 m/s 700 mmHg 16%
    23:00 +28°C° 0 mm 1 m/s 700 mmHg 16%

    9 Juin, Mardi

    Heure Température Précipitation Vent Pression Humidité
    00:00 +28°C° 0 mm 1 m/s 700 mmHg 17%
    01:00 +28°C° 0 mm 1 m/s 700 mmHg 17%
    02:00 +27°C° 0 mm 1 m/s 700 mmHg 17%
    03:00 +27°C° 0 mm 1 m/s 700 mmHg 18%
    04:00 +26°C° 0 mm 1 m/s 700 mmHg 19%
    05:00 +26°C° 0 mm 1 m/s 700 mmHg 19%
    06:00 +29°C° 0 mm 2 m/s 701 mmHg 17%
    07:00 +32°C° 0 mm 2 m/s 701 mmHg 14%
    08:00 +36°C° 0 mm 3 m/s 702 mmHg 12%
    09:00 +37°C° 0 mm 3 m/s 702 mmHg 11%
    10:00 +39°C° 0 mm 3 m/s 703 mmHg 10%
    11:00 +41°C° 0 mm 4 m/s 703 mmHg 9%
    12:00 +42°C° 0 mm 4 m/s 703 mmHg 8%
    13:00 +42°C° 0 mm 5 m/s 702 mmHg 8%
    14:00 +43°C° 0 mm 5 m/s 702 mmHg 8%
    15:00 +42°C° 0 mm 5 m/s 702 mmHg 8%
    16:00 +41°C° 0 mm 5 m/s 701 mmHg 9%
    17:00 +40°C° 0 mm 4 m/s 701 mmHg 9%
    18:00 +37°C° 0 mm 3 m/s 701 mmHg 12%
    19:00 +34°C° 0 mm 3 m/s 700 mmHg 15%
    20:00 +30°C° 0 mm 2 m/s 700 mmHg 17%
    21:00 +29°C° 0 mm 2 m/s 700 mmHg 18%
    22:00 +28°C° 0 mm 1 m/s 700 mmHg 18%
    23:00 +28°C° 0 mm 1 m/s 700 mmHg 18%
    Voir plus